< < Back
Terminal Aerodrome Forecast


Current Version              Previous Versions:   1  2  3  4  5  6  7  8  9  

Terminal Aerodrome Forecast

109
FTUS44 KHUN 301720
TAFHSV
TAF
KHSV 301720Z 3018/3118 35005KT P6SM SKC
     FM310000 VRB03KT P6SM SCT120
     FM311400 34012G20KT P6SM BKN080 OVC100
     FM311700 33015G25KT P6SM SCT080=



Latest METAR

245
SAUS80 KWBC 310400
MTRHSV
METAR KHSV 310353Z 00000KT 10SM FEW150 08/05 A3003 RMK AO2 SLP166
T00830050


USA.gov is the U.S. government's official web portal to all federal, state and local government web resources and services.